Location: Eymir
(36.7333°N, 29.7833°E)
Time: 18:11:24
(UTC+00:00)

BlueWalker 3 - Pass Details

Date: 14 January 2026
Orbit: 451 x 461 km, 53.2° (Epoch: 16 February)

Event Time Altitude Azimuth Distance (km) Brightness Sun altitude
Exits shadow 03:07:36 20° 166° (SSE) 1,096 3.8 -24.7°
Drops below altitude 10° 03:08:56 10° 156° (SSE) 1,589 4.9 -24.4°
Sets 03:11:08 0° 149° (SSE) 2,461 6.0 -24.0°
